Weather History for Red Wing, MN

Change the Weather History Date:

Thursday, November 8, 2012

  Actual Average Record
Temperature  
Mean Temperature 45 °F -  
Max Temperature 57 °F 44 °F 78 °F (1999)
Min Temperature 33 °F 29 °F 12 °F (2003)
Degree Days  
Heating Degree Days 20    
Moisture  
Dew Point 34 °F    
Average Humidity 71    
Maximum Humidity 100    
Minimum Humidity 48    
Precipitation  
Precipitation 0.00 in - - ()
Sea Level Pressure  
Sea Level Pressure 30.01 in    
Wind  
Wind Speed 6 mph (South)    
Max Wind Speed 16 mph    
Max Gust Speed 23 mph    
Visibility 9 miles    
Events      
Averages and records for this station are not official NWS values.
T = Trace of Precipitation, MM = Missing Value Source: NWS Daily Summary

Daily Weather History Graph

Daily Weather History Graph

Search for Another Location

Airport:

Trip Planner

Search our weather history database for the weather conditions in past years. The results will help you decide how hot, cold, wet, or windy it might be!

Date:

Astronomy

Nov. 08, 2012 Rise Set
Actual Time 6:57 AM CST 4:49 PM CST
Civil Twilight 6:26 AM CST 5:20 PM CST
Nautical Twilight 5:51 AM CST 5:54 PM CST
Astronomical Twilight 5:17 AM CST 6:29 PM CST
Moon 12:39 AM CST (11/8) 1:42 PM CST (11/8)
Length of Visible Light 10h 53m
Length of Day
9h 51m
Waning Crescent, 32% of the Moon is Illuminated
Nov 8
Waning Crescent
Nov 13
New
Nov 20
First Quarter
Nov 28
Full
Dec 6
Last Quarter

Hourly Weather History & Observations

Time (CST) Temp. Windchill Dew Point Humidity Pressure Visibility Wind Dir Wind Speed Gust Speed Precip Events Conditions
12:15 AM 39.2 °F 35.0 °F 30.2 °F 70% 30.10 in 10.0 mi South 5.8 mph - N/A   Clear
12:35 AM 39.2 °F 35.0 °F 30.2 °F 70% 30.10 in 10.0 mi South 5.8 mph - N/A   Clear
12:55 AM 37.4 °F 32.8 °F 30.2 °F 75% 30.10 in 10.0 mi South 5.8 mph - N/A   Clear
1:15 AM 39.2 °F 35.0 °F 30.2 °F 70% 30.10 in 10.0 mi South 5.8 mph - N/A   Clear
1:35 AM 37.4 °F 32.8 °F 30.2 °F 75% 30.09 in 10.0 mi SE 5.8 mph - N/A   Clear
1:55 AM 37.4 °F 32.8 °F 30.2 °F 75% 30.09 in 10.0 mi SSE 5.8 mph - N/A   Clear
2:15 AM 37.4 °F 33.8 °F 30.2 °F 75% 30.08 in 10.0 mi SE 4.6 mph - N/A   Clear
2:35 AM 37.4 °F 33.8 °F 30.2 °F 75% 30.07 in 10.0 mi SSE 4.6 mph - N/A   Clear
2:55 AM 37.4 °F - 30.2 °F 75% 30.07 in 10.0 mi Calm Calm - N/A   Clear
3:15 AM 37.4 °F 32.8 °F 30.2 °F 75% 30.06 in 10.0 mi South 5.8 mph - N/A   Clear
3:35 AM 37.4 °F 34.9 °F 30.2 °F 75% 30.06 in 10.0 mi SE 3.5 mph - N/A   Clear
3:55 AM 37.4 °F 33.8 °F 30.2 °F 75% 30.05 in 10.0 mi ESE 4.6 mph - N/A   Clear
4:15 AM 37.4 °F 32.8 °F 30.2 °F 75% 30.05 in 10.0 mi SE 5.8 mph - N/A   Clear
4:35 AM 37.4 °F 34.9 °F 30.2 °F 75% 30.04 in 10.0 mi SSE 3.5 mph - N/A   Clear
4:55 AM 37.4 °F 33.8 °F 30.2 °F 75% 30.05 in 10.0 mi SE 4.6 mph - N/A   Clear
5:15 AM 37.4 °F 32.8 °F 30.2 °F 75% 30.04 in 10.0 mi SE 5.8 mph - N/A   Clear
5:35 AM 37.4 °F 31.4 °F 30.2 °F 75% 30.03 in 10.0 mi SE 8.1 mph - N/A   Clear
5:55 AM 37.4 °F 32.1 °F 30.2 °F 75% 30.03 in 10.0 mi SE 6.9 mph - N/A   Clear
6:15 AM 37.4 °F 33.8 °F 30.2 °F 75% 30.03 in 10.0 mi SE 4.6 mph - N/A   Clear
6:55 AM 37.4 °F 32.8 °F 30.2 °F 75% 30.03 in 10.0 mi SE 5.8 mph - N/A   Clear
7:15 AM 37.4 °F 30.8 °F 30.2 °F 75% 30.03 in 10.0 mi SE 9.2 mph - N/A   Clear
7:35 AM 37.4 °F 31.4 °F 32.0 °F 81% 30.02 in 10.0 mi SE 8.1 mph - N/A   Clear
7:55 AM 39.2 °F 33.0 °F 32.0 °F 75% 30.02 in 10.0 mi SE 9.2 mph - N/A   Clear
8:14 AM 39.2 °F 33.0 °F 33.8 °F 81% 30.01 in 10.0 mi SE 9.2 mph - N/A   Clear
8:35 AM 42.8 °F 40.1 °F 33.8 °F 70% 30.02 in 10.0 mi SSE 4.6 mph - N/A   Clear
8:55 AM 42.8 °F 39.3 °F 33.8 °F 70% 30.03 in 10.0 mi South 5.8 mph - N/A   Clear
9:14 AM 42.8 °F 39.3 °F 33.8 °F 70% 30.02 in 10.0 mi SSE 5.8 mph - N/A   Clear
9:35 AM 44.6 °F 40.2 °F 35.6 °F 71% 30.02 in 10.0 mi South 8.1 mph - N/A   Clear
9:55 AM 44.6 °F 40.2 °F 35.6 °F 71% 30.01 in 10.0 mi South 8.1 mph - N/A   Clear
10:35 AM 50.0 °F - 35.6 °F 58% 30.00 in 10.0 mi South 9.2 mph - N/A   Clear
10:55 AM 51.8 °F - 35.6 °F 54% 29.99 in 10.0 mi South 13.8 mph 20.7 mph N/A   Clear
11:15 AM 51.8 °F - 35.6 °F 54% 29.98 in 10.0 mi SSW 10.4 mph 16.1 mph N/A   Clear
11:35 AM 51.8 °F - 35.6 °F 54% 29.96 in 10.0 mi South 11.5 mph 23.0 mph N/A   Clear
11:55 AM 51.8 °F - 35.6 °F 54% 29.97 in 10.0 mi SSW 13.8 mph 17.3 mph N/A   Clear
12:15 PM 55.4 °F - 37.4 °F 51% 29.96 in 10.0 mi SSW 11.5 mph - N/A   Clear
12:35 PM 55.4 °F - 37.4 °F 51% 29.95 in 10.0 mi South 12.7 mph 16.1 mph N/A   Clear
12:55 PM 55.4 °F - 37.4 °F 51% 29.95 in 10.0 mi South 10.4 mph - N/A   Clear
1:15 PM 57.2 °F - 37.4 °F 48% 29.94 in 10.0 mi SSW 12.7 mph 19.6 mph N/A   Clear
1:35 PM 57.2 °F - 37.4 °F 48% 29.94 in 10.0 mi SSW 11.5 mph - N/A   Clear
1:55 PM 57.2 °F - 37.4 °F 48% 29.94 in 10.0 mi SW 10.4 mph - N/A   Clear
2:15 PM 57.2 °F - 37.4 °F 48% 29.93 in 10.0 mi SSW 10.4 mph 17.3 mph N/A   Clear
2:35 PM 57.2 °F - 37.4 °F 48% 29.93 in 10.0 mi SW 15.0 mph 19.6 mph N/A   Clear
2:55 PM 55.4 °F - 37.4 °F 51% 29.93 in 10.0 mi WSW 16.1 mph - N/A   Clear
3:15 PM 55.4 °F - 37.4 °F 51% 29.94 in 10.0 mi SW 9.2 mph 16.1 mph N/A   Clear
3:35 PM 55.4 °F - 39.2 °F 54% 29.94 in 10.0 mi SW 9.2 mph 12.7 mph N/A   Clear
3:55 PM 55.4 °F - 39.2 °F 54% 29.95 in 10.0 mi SW 10.4 mph - N/A   Clear
4:15 PM 53.6 °F - 39.2 °F 58% 29.96 in 10.0 mi SW 6.9 mph - N/A   Mostly Cloudy
4:35 PM 53.6 °F - 39.2 °F 58% 29.96 in 10.0 mi SSW 6.9 mph - N/A   Overcast
4:55 PM 53.6 °F - 39.2 °F 58% 29.96 in 10.0 mi SSW 3.5 mph - N/A   Overcast
5:15 PM 51.8 °F - 39.2 °F 62% 29.96 in 10.0 mi South 3.5 mph - N/A   Mostly Cloudy
5:35 PM 51.8 °F - 39.2 °F 62% 29.97 in 10.0 mi Calm Calm - N/A   Clear
5:55 PM 48.2 °F - 39.2 °F 71% 29.98 in 10.0 mi Calm Calm - N/A   Clear
6:15 PM 46.4 °F - 39.2 °F 76% 29.98 in 10.0 mi Calm Calm - N/A   Clear
6:35 PM 44.6 °F 43.1 °F 37.4 °F 76% 29.98 in 10.0 mi NE 3.5 mph - N/A   Clear
6:55 PM 44.6 °F - 37.4 °F 76% 29.99 in 10.0 mi Calm Calm - N/A   Clear
7:15 PM 42.8 °F - 37.4 °F 81% 29.99 in 10.0 mi Calm Calm - N/A   Clear
7:35 PM 42.8 °F - 37.4 °F 81% 29.99 in 10.0 mi Calm Calm - N/A   Clear
7:55 PM 41.0 °F - 35.6 °F 81% 29.99 in 10.0 mi Calm Calm - N/A   Clear
8:14 PM 39.2 °F - 35.6 °F 87% 29.99 in 10.0 mi Calm Calm - N/A   Clear
8:35 PM 37.4 °F - 35.6 °F 93% 29.99 in 10.0 mi Calm Calm - N/A   Clear
8:55 PM 37.4 °F - 35.6 °F 93% 30.00 in 7.0 mi Calm Calm - N/A   Clear
9:15 PM 37.4 °F - 35.6 °F 93% 30.00 in 7.0 mi Calm Calm - N/A   Clear
9:35 PM 35.6 °F - 33.8 °F 93% 30.00 in 7.0 mi Calm Calm - N/A   Clear
9:55 PM 35.6 °F - 33.8 °F 93% 30.00 in 7.0 mi Calm Calm - N/A   Clear
10:15 PM 35.6 °F - 33.8 °F 93% 30.01 in 7.0 mi Calm Calm - N/A   Clear
10:35 PM 35.6 °F - 33.8 °F 93% 30.01 in 5.0 mi Calm Calm - N/A   Clear
10:55 PM 33.8 °F - 33.8 °F 100% 30.01 in 5.0 mi Calm Calm - N/A   Clear
11:15 PM 33.8 °F - 32.0 °F 93% 30.02 in 5.0 mi Calm Calm - N/A   Clear
11:35 PM 33.8 °F - 32.0 °F 93% 30.02 in 5.0 mi Calm Calm - N/A   Clear
11:55 PM 33.8 °F - 32.0 °F 93% 30.02 in 5.0 mi Calm Calm - N/A   Clear